Regional Weather Roundup
Issued by NWS

Home | Current Version | Previous Version | Text Only | Print | Product List | Glossary On
Versions: 1 2 3 4 5 6 7 8 9 10 11 12 13 14 15 16 17 18 19 20 21 22 23 24 25 26 27
000
ASUS45 KREV 230510
RWRNV
NEVADA REGIONAL WEATHER ROUNDUP
NATIONAL WEATHER SERVICE RENO NV
900 PM PST THU FEB 22 2018

NOTE: "FAIR" INDICATES FEW OR NO CLOUDS BELOW 12,000 FEET WITH NO
SIGNIFICANT WEATHER AND/OR OBSTRUCTIONS TO VISIBILITY.

NVZ001-003-004-230600-
WESTERN NEVADA

CITY           SKY/WX    TMP DP  RH WIND       PRES   REMARKS
RENO           PTCLDY    24  16  71 NE6       30.01R
CARSON CITY    MOCLDY    25  14  63 CALM      30.01R
MINDEN         FLURRIES  23  21  93 CALM      30.01S
SLIDE MTN        N/A      5   3  92 NW10        N/A  WCI -10
PYRAMID LAKE     N/A     28 N/A N/A W2          N/A
FALLON         CLOUDY    24  22  91 SW3       29.99S
LOVELOCK       PTCLDY    16  14  92 SE6       29.99R
HAWTHORNE      HAZE      27  21  80 N9G20     29.99R VSB 1
$$

NVZ002-CAZ072-073-230600-
NORTHERN AND CENTRAL SIERRA

CITY           SKY/WX    TMP DP  RH WIND       PRES   REMARKS
S. LAKE TAHOE  LGT SNOW  18  15  88 CALM      29.93S VSB 3/4
TRUCKEE        MOCLDY    12   9  85 CALM      29.97R
SQUAW VLY 8000   N/A      9   7  92 N3          N/A
SUSANVILLE     CLEAR     21  14  73 W6        30.05R
BLUE CANYON    CLEAR     21  14  74 NE5       29.98S
MAMMOTH LAKES  LGT SNOW  18  17  94 S6        29.88S VSB 3/4
BRIDGEPORT     LGT SNOW  18  13  80 CALM      29.87R
$$

NVZ030-031-036-230600-
NORTHERN NEVADA

CITY           SKY/WX    TMP DP  RH WIND       PRES   REMARKS
ELKO           MOCLDY    16  13  88 CALM      29.92R
WINNEMUCCA     CLOUDY    25  18  74 VRB7      29.97R
WENDOVER       CLOUDY    24  21  88 CALM      29.96F
$$

NVZ035-037-230600-
CENTRAL NEVADA

CITY           SKY/WX    TMP DP  RH WIND       PRES   REMARKS
ELY            CLOUDY    16  13  88 CALM      29.88R
EUREKA           N/A     21  18  88 S6        29.89S
$$

NVZ013-014-230600-
SOUTH CENTRAL NEVADA

CITY           SKY/WX    TMP DP  RH WIND       PRES   REMARKS
TONOPAH        PTCLDY    22  18  85 VRB7      29.93R
$$

NVZ017-020-022-230600-
SOUTHERN NEVADA

CITY           SKY/WX    TMP DP  RH WIND       PRES   REMARKS
LAS VEGAS      PTCLDY    49  11  21 SE7       29.95R
N. LAS VEGAS   CLEAR     48  12  23 W20G25    29.92R
NELLIS AFB     PTCLDY    49  14  25 SW14      29.95R
HENDERSON      CLEAR     46  10  23 SW12G20   29.97R
MERCURY        MOCLDY    42  10  27 SW16G22   29.92R
$$




USA.gov is the U.S. government's official web portal to all federal, state and local government web resources and services.